カタログに戻る

METEOR 1-25

運用中気象PO
NORAD 8845·PAYLOAD·🇷🇺 Russia

打ち上げ May 15, 1976 から Plesetsk Cosmodrome

Loading…

次のパス (今後24時間)

TLE

最新Source: Space-Track

元期: Sep 14, 2026, 22:07 UTC

1 08845U 76043A   26257.92215040 -.00000083  00000-0 -52337-4 0  9997
2 08845  81.2610 228.3423 0040303  38.1653 322.2360 14.11845622737587

AllMySatでMETEOR 1-25をリアルタイム追跡

Download on the App Store